Orbital Elements at Epoch 2459000.5 (2020-May-31.0) TDB
Reference: JPL 18 (heliocentric ecliptic J2000)
Element | Value | Uncertainty (1-sigma) | Units |
e | .038254153595581 | 6.6134e-08 | |
a | 2.652658795387179 | 2.2463e-08 | au |
q | 2.551183578391768 | 1.7081e-07 | au |
i | 9.264822545452311 | 5.5952e-06 | deg |
node | 265.14126072149 | 4.0958e-05 | deg |
peri | 287.4042991150832 | 9.8525e-05 | deg |
M | 23.41708581608339 | 8.4897e-05 | deg |
tp | 2458897.851912847849 (2020-Feb-18.35191285) | 0.00037277 | TDB |
period | 1578.049107604751 4.32 | 2.0045e-05 5.488e-08 | d yr |
n | .2281297826950566 | 2.8978e-09 | deg/d |
Q | 2.754134012382588 | 2.3323e-08 | au |
|
| | Orbit Determination Parameters
Additional Information
|